[[{"header":{"parameterUnit":"m.s-1","parameterCategory":1,"la1":30.2991,"la2":30.254,"lo1":-89.0895,"lo2":-89.0444,"dy":0.0017,"dx":0.0017,"nx":28,"ny":28,"refTime":"2026-01-29T09:00:00:Z","depth":0,"parameterNumber":2,"parameterNumberName":"U-component_of_WINDS"},"data":[0,0,0,0,0,0,0,0,0,0,0,0,0,0,0,0,0,0,0,0,0,0,0,0,0,0,0,0,0,0,0,0,0,0,0,0,0,0,0,0,0,0,0,0,0,0,0,0,0,0,0,0,0,0,0,0,0,0,1.0329,1.033,0,1.0418,1.0419,1.042,1.0461,1.0461,1.0461,1.0461,1.055,1.0552,1.0555,0,0,0,0,0,0,0,0,0,0,0,0,0,1.0193,1.0195,1.0329,1.033,1.0331,1.0418,1.0419,1.042,1.0461,1.0461,1.0461,1.0461,1.0549,1.0552,1.0555,0,0,0,0,0,0,0,0,0,0,0,0,0,1.0264,1.0196,1.0328,1.0362,1.0366,1.0417,1.0419,1.042,1.0461,1.0461,1.0461,1.0461,1.0548,1.0552,1.0555,1.058,0,0,1.0567,1.0568,0,0,0,0,0,0,0,0,1.026,1.0269,1.0356,1.036,1.0364,1.0428,1.0404,1.0474,1.0461,1.0425,1.0461,1.0461,1.0509,1.0516,1.0533,1.0584,1.0588,1.0567,1.0569,1.0571,1.0572,0,0,0,0,0,0,0,1.0255,1.0265,1.0364,1.0357,1.0362,1.0372,1.0382,1.0417,1.0466,1.0428,1.0431,1.0441,1.0512,1.053,1.0536,1.0589,1.0567,1.057,1.0572,1.0574,1.0666,1.0666,0,0,0,0,0,0,1.0244,1.0261,1.0361,1.0367,1.0311,1.0374,1.0386,1.0408,1.0466,1.0475,1.0441,1.0443,1.0523,1.0531,1.0539,1.0572,1.0571,1.0574,1.0576,1.0666,1.0666,1.0666,0,0,0,0,0,0,1.0241,1.0253,1.0357,1.0315,1.0329,1.0377,1.0401,1.0409,1.0427,1.0476,1.0485,1.045,1.0524,1.0534,1.057,1.0576,1.0576,1.0579,1.0665,1.0666,1.0666,1.0638,0,0,0,0,0,0,1.0237,1.0252,1.0262,1.0314,1.0331,1.0387,1.0402,1.0411,1.0434,1.0437,1.0487,1.0496,1.0524,1.0564,1.0573,1.0581,1.0582,1.0665,1.0666,1.0666,1.0639,1.0638,1.0637,0,0,0,0,0,1.0232,1.025,1.0262,1.0274,1.0344,1.0387,1.0397,1.043,1.0434,1.0445,1.0476,1.0494,1.0574,1.0568,1.0578,1.0587,1.0665,1.0666,1.0666,1.064,1.0638,1.0637,0,0,0,0,0,0,1.0196,1.0257,1.0272,1.0307,1.0342,1.0394,1.0408,1.0427,1.0461,1.0462,1.0501,1.0512,1.0545,1.057,1.0562,1.0614,1.0621,1.0624,1.0597,1.0596,1.0595,1.0588,1.0585,0,0,0,0,0,1.0192,1.0222,1.0274,1.03,1.0317,1.036,1.038,1.0402,1.044,1.0454,1.0489,1.0524,1.0557,1.0578,1.0611,1.0643,1.0655,1.0654,1.0653,1.0652,1.0654,1.0673,1.0673,1.0668,1.0668,1.0668,0,0,1.0184,1.0221,1.0238,1.0294,1.0323,1.0354,1.0372,1.0403,1.0426,1.0459,1.0496,1.0522,1.0564,1.0598,1.0615,1.0619,1.0658,1.0652,1.0651,1.0654,1.0674,1.0674,1.0674,1.0669,1.0669,1.0669,0,0,1.0185,1.0216,1.0242,1.0272,1.0317,1.0345,1.0351,1.0401,1.042,1.0458,1.0484,1.0511,1.0567,1.0596,1.0618,1.0631,1.0649,1.0641,1.0635,1.0653,1.0654,1.0654,1.0659,1.066,1.0643,1.0642,1.0642,0,1.0169,1.0217,1.0252,1.0282,1.0306,1.0339,1.0365,1.0392,1.0445,1.046,1.0465,1.0537,1.0567,1.0609,1.0612,1.0629,1.0637,1.0635,1.0651,1.0652,1.0653,1.0658,1.066,1.0641,1.0641,1.0641,1.0642,0,1.0195,1.0227,1.0242,1.0294,1.032,1.0347,1.0387,1.0409,1.0429,1.0457,1.0495,1.0533,1.0574,1.0586,1.0606,1.0631,1.0632,1.0643,1.0651,1.0651,1.0657,1.0659,1.0639,1.064,1.064,1.0641,0,0,1.0175,1.0247,1.0252,1.0276,1.0329,1.0354,1.0383,1.0425,1.0443,1.0478,1.0504,1.0551,1.0562,1.0587,1.061,1.0626,1.0635,1.0636,1.0637,1.0634,1.0665,1.0656,1.0658,1.0647,1.0648,1.0648,1.0662,0,1.0184,1.0239,1.0272,1.0313,1.0343,1.0375,1.0401,1.0435,1.0462,1.0492,1.0521,1.0554,1.0566,1.0581,1.0598,1.063,1.0641,1.0629,1.0671,1.0672,1.066,1.0661,1.0652,1.0663,1.0664,1.0664,1.0665,0,1.0201,1.0237,1.0281,1.0331,1.0345,1.0367,1.0409,1.0436,1.0476,1.0495,1.0523,1.0547,1.0579,1.0584,1.0629,1.062,1.0639,1.0657,1.0659,1.0664,1.0668,1.0666,1.0667,1.0669,1.0668,1.0668,1.0668,0,1.0183,1.0242,1.0276,1.0296,1.0355,1.037,1.0395,1.0435,1.0458,1.0494,1.0509,1.0548,1.0569,1.0598,1.0632,1.0632,1.0673,1.0681,1.069,1.0689,1.0697,1.0696,1.0701,1.0709,1.0709,1.0709,1.0708,0,1.0189,1.0215,1.0269,1.029,1.032,1.0358,1.0386,1.0414,1.045,1.0476,1.0506,1.053,1.0574,1.0603,1.063,1.0663,1.0672,1.0688,1.0695,1.0686,1.0683,1.0698,1.0699,1.0709,1.0709,1.0709,1.0709,0,1.0173,1.0211,1.025,1.0303,1.0317,1.0337,1.0382,1.0403,1.0432,1.0465,1.0475,1.052,1.0557,1.0594,1.0643,1.0661,1.0693,1.0703,1.068,1.0684,1.069,1.0689,1.0705,1.071,1.0714,1.0714,1.0714,0,1.0175,1.0196,1.0251,1.0271,1.0296,1.0328,1.0352,1.0391,1.0414,1.0462,1.0478,1.0517,1.055,1.0607,1.0644,1.0682,1.0692,1.0695,1.0698,1.0688,1.0692,1.0691,1.0693,1.0694,1.0693,1.0693,1.0693,0,1.0174,1.0192,1.0225,1.0265,1.0293,1.0327,1.0361,1.0376,1.0421,1.0446,1.0484,1.051,1.0561,1.0599,1.0641,1.0667,1.0688,1.0692,1.0696,1.0687,1.0673,1.0681,1.0677,1.0691,1.0692,1.0692,1.0692,1.0692,1.0167,1.0187,1.023,1.0266,1.0296,1.0328,1.0351,1.0383,1.0416,1.046,1.0481,1.0519,1.0559,1.0619,1.0644,1.0674,1.068,1.0685,1.0687,1.0688,1.0686,1.0668,1.0682,1.0682,1.0682,1.0682,1.0683,0,1.0168,1.0197,1.023,1.0278,1.0306,1.0324,1.0363,1.0386,1.042,1.0456,1.0488,1.0532,1.057,1.061,1.065,1.0666,1.0677,1.0676,1.0675,1.068,1.0679,1.0671,1.0666,1.0666,1.0666,1.0666,1.0666,1.0666,1.0172,1.0207,1.0229,1.028,1.0309,1.0347,1.0368,1.0397,1.0426,1.0474,1.0506,1.0532,1.057,1.0613,1.0648,1.0659,1.0672,1.0668,1.0682,1.0679,1.068,1.0681,1.0675,1.0671,1.0671,1.0681,1.0681,1.0681]},{"header":{"parameterUnit":"m.s-1","parameterCategory":1,"la1":30.2991,"la2":30.254,"lo1":-89.0895,"lo2":-89.0444,"dy":0.0017,"dx":0.0017,"nx":28,"ny":28,"refTime":"2026-01-29T09:00:00:Z","depth":0,"parameterNumber":3,"parameterNumberName":"V-component_of_WINDS"},"data":[0,0,0,0,0,0,0,0,0,0,0,0,0,0,0,0,0,0,0,0,0,0,0,0,0,0,0,0,0,0,0,0,0,0,0,0,0,0,0,0,0,0,0,0,0,0,0,0,0,0,0,0,0,0,0,0,0,0,-0.9843,-0.9843,0,-0.9889,-0.9889,-0.989,-0.9905,-0.9905,-0.9904,-0.9904,-0.9952,-0.9954,-0.9955,0,0,0,0,0,0,0,0,0,0,0,0,0,-0.9768,-0.9769,-0.9843,-0.9843,-0.9844,-0.9889,-0.9889,-0.989,-0.9905,-0.9905,-0.9904,-0.9904,-0.9952,-0.9954,-0.9955,0,0,0,0,0,0,0,0,0,0,0,0,0,-0.9806,-0.977,-0.9843,-0.9857,-0.9858,-0.9889,-0.989,-0.989,-0.9905,-0.9905,-0.9904,-0.9904,-0.9951,-0.9953,-0.9956,-0.9976,0,0,-0.9962,-0.9963,0,0,0,0,0,0,0,0,-0.9804,-0.9809,-0.9854,-0.9856,-0.9858,-0.9891,-0.9881,-0.9919,-0.9905,-0.9887,-0.9904,-0.9904,-0.9932,-0.9936,-0.9945,-0.9978,-0.998,-0.9963,-0.9964,-0.9965,-0.9966,0,0,0,0,0,0,0,-0.9801,-0.9807,-0.9861,-0.9855,-0.9857,-0.9861,-0.9866,-0.9888,-0.9911,-0.9889,-0.989,-0.9895,-0.9933,-0.9943,-0.9947,-0.9981,-0.9963,-0.9965,-0.9966,-0.9967,-1.0031,-1.0032,0,0,0,0,0,0,-0.9796,-0.9805,-0.986,-0.9862,-0.9829,-0.9862,-0.9868,-0.9881,-0.9911,-0.9915,-0.9895,-0.9896,-0.994,-0.9944,-0.9948,-0.9973,-0.9965,-0.9967,-0.9968,-1.0031,-1.0031,-1.0032,0,0,0,0,0,0,-0.9794,-0.9801,-0.9858,-0.9834,-0.9841,-0.9864,-0.9878,-0.9882,-0.9892,-0.9916,-0.992,-0.9901,-0.9939,-0.9945,-0.9969,-0.9975,-0.9968,-0.997,-1.0031,-1.0031,-1.0032,-1.0023,0,0,0,0,0,0,-0.9792,-0.98,-0.9808,-0.9834,-0.9843,-0.9877,-0.9878,-0.9883,-0.9895,-0.9896,-0.9922,-0.9927,-0.994,-0.9965,-0.9971,-0.9978,-0.9972,-1.003,-1.0031,-1.0031,-1.0023,-1.0024,-1.0024,0,0,0,0,0,-0.979,-0.9804,-0.9808,-0.9815,-0.9853,-0.9877,-0.9882,-0.9897,-0.9896,-0.9904,-0.9919,-0.9926,-0.9974,-0.9967,-0.9974,-0.9982,-1.003,-1.0031,-1.0031,-1.0023,-1.0023,-1.0024,0,0,0,0,0,0,-0.9779,-0.9808,-0.9813,-0.9836,-0.9854,-0.988,-0.989,-0.9897,-0.9916,-0.9916,-0.9934,-0.9939,-0.9961,-0.9974,-0.9967,-1.0003,-1.0002,-1.0004,-0.9993,-0.9994,-0.9994,-0.9991,-0.9974,0,0,0,0,0,-0.9779,-0.9796,-0.9821,-0.9839,-0.9848,-0.9867,-0.9879,-0.9888,-0.9908,-0.9916,-0.9933,-0.9952,-0.9971,-0.9983,-1.0002,-1.0025,-1.0031,-1.0034,-1.0034,-1.0034,-1.0036,-1.0048,-1.005,-1.0035,-1.0035,-1.0035,0,0,-0.978,-0.9798,-0.9808,-0.9838,-0.9853,-0.987,-0.9874,-0.9893,-0.9906,-0.9919,-0.9941,-0.9955,-0.9977,-1.0,-1.0011,-1.0011,-1.0041,-1.0036,-1.0035,-1.0037,-1.0049,-1.0051,-1.0052,-1.0035,-1.0035,-1.0035,0,0,-0.9791,-0.9806,-0.9823,-0.9837,-0.986,-0.9873,-0.9877,-0.9901,-0.991,-0.9933,-0.9943,-0.9959,-0.9992,-1.0008,-1.002,-1.0035,-1.0042,-1.0041,-1.0043,-1.0055,-1.0056,-1.0057,-1.0062,-1.0064,-1.0043,-1.0043,-1.0043,0,-0.9789,-0.9815,-0.983,-0.9848,-0.9861,-0.9873,-0.9889,-0.9903,-0.9931,-0.9939,-0.9939,-0.998,-0.9996,-1.0023,-1.0026,-1.0036,-1.0041,-1.0038,-1.0055,-1.0056,-1.0057,-1.0062,-1.0064,-1.0042,-1.0042,-1.0042,-1.0042,0,-0.9812,-0.983,-0.9841,-0.9867,-0.988,-0.9898,-0.9915,-0.9928,-0.9936,-0.9949,-0.9972,-0.9991,-1.0014,-1.0021,-1.003,-1.0049,-1.0048,-1.0051,-1.0051,-1.0058,-1.0063,-1.0065,-1.0042,-1.0042,-1.0042,-1.0042,0,0,-0.9817,-0.985,-0.9854,-0.9865,-0.9891,-0.9905,-0.9923,-0.9945,-0.9955,-0.9974,-0.9989,-1.0016,-1.0019,-1.0033,-1.0043,-1.0054,-1.0064,-1.0055,-1.0056,-1.0056,-1.0085,-1.0083,-1.0085,-1.0069,-1.0069,-1.007,-1.0083,0,-0.983,-0.9862,-0.9875,-0.9901,-0.9918,-0.9929,-0.9945,-0.9962,-0.9974,-0.9991,-1.0005,-1.0023,-1.0026,-1.0034,-1.0045,-1.006,-1.007,-1.006,-1.0083,-1.0084,-1.0076,-1.0087,-1.0084,-1.0097,-1.0086,-1.0086,-1.0086,0,-0.985,-0.9868,-0.9894,-0.9917,-0.9925,-0.9938,-0.9959,-0.9975,-0.9995,-1.0003,-1.0018,-1.0028,-1.0047,-1.0045,-1.0072,-1.0064,-1.0075,-1.0084,-1.0085,-1.0087,-1.0085,-1.0089,-1.0101,-1.0103,-1.0089,-1.0089,-1.0089,0,-0.985,-0.9881,-0.9901,-0.991,-0.9938,-0.9947,-0.9959,-0.9978,-0.999,-1.0009,-1.0017,-1.0038,-1.0049,-1.0065,-1.008,-1.0078,-1.0105,-1.0105,-1.0112,-1.0112,-1.0117,-1.0116,-1.013,-1.0124,-1.0124,-1.0124,-1.0124,0,-0.9863,-0.9878,-0.9901,-0.9913,-0.9931,-0.9947,-0.9964,-0.9977,-0.9994,-1.0009,-1.0021,-1.0035,-1.0054,-1.0071,-1.0083,-1.0103,-1.0108,-1.0115,-1.0118,-1.0114,-1.0113,-1.012,-1.012,-1.0125,-1.0125,-1.0125,-1.0125,0,-0.9865,-0.9881,-0.9904,-0.9927,-0.9934,-0.9946,-0.9966,-0.9979,-0.9992,-1.001,-1.0016,-1.0036,-1.0056,-1.0073,-1.0099,-1.0107,-1.0128,-1.0131,-1.0121,-1.0122,-1.0128,-1.0127,-1.0147,-1.015,-1.0143,-1.0143,-1.0143,0,-0.9872,-0.9885,-0.991,-0.992,-0.9932,-0.9949,-0.9961,-0.9977,-0.9989,-1.0013,-1.0022,-1.0043,-1.006,-1.0091,-1.0108,-1.0129,-1.0133,-1.0138,-1.0136,-1.0131,-1.0132,-1.0131,-1.0132,-1.0138,-1.0138,-1.0138,-1.0138,0,-0.9883,-0.989,-0.9907,-0.9926,-0.994,-0.9957,-0.9973,-0.9981,-1.0,-1.0014,-1.0034,-1.0047,-1.0074,-1.0094,-1.0116,-1.0129,-1.0136,-1.0139,-1.0141,-1.0137,-1.013,-1.0133,-1.012,-1.0138,-1.0138,-1.0138,-1.0138,-1.0138,-0.9888,-0.9899,-0.9918,-0.9936,-0.995,-0.9965,-0.9978,-0.9992,-1.0009,-1.0031,-1.004,-1.006,-1.008,-1.011,-1.0123,-1.0139,-1.014,-1.0144,-1.0145,-1.0146,-1.0145,-1.0128,-1.0143,-1.0143,-1.0143,-1.0143,-1.0143,0,-0.9898,-0.9911,-0.9927,-0.995,-0.9964,-0.997,-0.9989,-1.0,-1.0018,-1.0035,-1.0052,-1.0075,-1.0095,-1.0113,-1.0134,-1.0143,-1.0148,-1.0148,-1.0148,-1.015,-1.0143,-1.0138,-1.0145,-1.0145,-1.0145,-1.0144,-1.0144,-1.0144,-0.9905,-0.9924,-0.9933,-0.9959,-0.9972,-0.9992,-1.0002,-1.0016,-1.003,-1.0055,-1.0071,-1.0083,-1.0101,-1.0123,-1.0141,-1.0146,-1.0153,-1.0152,-1.0158,-1.0151,-1.0151,-1.015,-1.0146,-1.0154,-1.0154,-1.0164,-1.0164,-1.0164]}]]